Tracking 35055 objects as of 18-Aug-2026
HD Live streaming from Space Station
objects crossing your sky now

SITRO-AIS-39

Track SITRO-AIS-39 now!
10-day predictions
SITRO-AIS-39 is classified as:


NORAD ID: 61778
Int'l Code: 2024-199AV
Launch date: November 4, 2024
Source: (TBD)
Launch site: VOSTOCHNY COSMODROME (VOSTO)

Uplink (MHz):
Downlink (MHz): 401.065
Beacon (MHz):
Mode: 2k4 GMSK_USP
Call sign: SC2327
Status: Active

Your satellite tracking list
Your tracking list is empty




NASA's NSSDC Master Catalog

Two Line Element Set (TLE):
1 61778U 24199AV  26230.59530760  .00061893  00000-0  65775-3 0  9992
2 61778  97.2770 108.0151 0007748  69.1293 291.0795 15.63821520144156
Source of the keplerian elements: AFSPC